When you browse on this site, cookies collect data to enhance your experience and personalize the content and advertising you see.
Visit our Privacy Policy to learn more. By continuing to use the site, you agree to this use of cookies and data.
  • In France
  • List of Countries
  • For 7 days
  • Water Temperature
  • Satellite Maps
  • Weather Map
  • Weather Widgets
  • user-avatar
    Login

    Hourly Weather Linz

    Today, 12 December, Wednesday

    Time Temperature Precipitation Wind Pressure Humidity
    00:00 -1°C° 0.4 mm 5 mps 735 mmHg 89%
    01:00 0°C° 0 mm 4 mps 735 mmHg 87%
    02:00 0°C° 0.4 mm 4 mps 735 mmHg 87%
    03:00 0°C° 0.4 mm 4 mps 735 mmHg 88%
    04:00 -1°C° 0.4 mm 4 mps 735 mmHg 89%
    05:00 -1°C° 0.6 mm 4 mps 736 mmHg 89%
    06:00 -1°C° 0.6 mm 4 mps 736 mmHg 90%
    07:00 -1°C° 0.6 mm 4 mps 736 mmHg 91%
    08:00 0°C° 0.4 mm 3 mps 736 mmHg 90%
    09:00 +1°C° 0.4 mm 3 mps 736 mmHg 90%
    10:00 +1°C° 0.4 mm 3 mps 736 mmHg 90%
    11:00 +1°C° 0.3 mm 3 mps 736 mmHg 89%
    12:00 +1°C° 0.3 mm 3 mps 736 mmHg 88%
    13:00 +1°C° 0.3 mm 3 mps 736 mmHg 87%
    14:00 +2°C° 0.3 mm 2 mps 736 mmHg 88%
    15:00 +2°C° 0.3 mm 2 mps 736 mmHg 89%
    16:00 +1°C° 0.3 mm 2 mps 736 mmHg 91%
    17:00 +2°C° 0.3 mm 1 mps 736 mmHg 91%
    18:00 +2°C° 0.3 mm 1 mps 736 mmHg 92%
    19:00 +1°C° 0.3 mm 1 mps 737 mmHg 93%
    20:00 +1°C° 0.2 mm 1 mps 737 mmHg 93%
    21:00 +1°C° 0.2 mm 1 mps 737 mmHg 92%
    22:00 +1°C° 0.2 mm 1 mps 737 mmHg 92%
    23:00 0°C° 0.1 mm 1 mps 737 mmHg 92%

    Tomorrow, 13 December, Thursday

    Time Temperature Precipitation Wind Pressure Humidity
    00:00 0°C° 0.1 mm 1 mps 737 mmHg 91%
    01:00 0°C° 0.1 mm 1 mps 737 mmHg 91%
    02:00 -1°C° 0 mm 1 mps 737 mmHg 91%
    03:00 -3°C° 0 mm 2 mps 736 mmHg 91%
    04:00 -3°C° 0 mm 2 mps 736 mmHg 91%
    05:00 -4°C° 0 mm 2 mps 736 mmHg 90%
    06:00 -4°C° 0 mm 2 mps 736 mmHg 90%
    07:00 -4°C° 0 mm 2 mps 736 mmHg 89%
    08:00 -4°C° 0 mm 2 mps 735 mmHg 87%
    09:00 -4°C° 0 mm 3 mps 735 mmHg 85%
    10:00 -2°C° 0 mm 3 mps 735 mmHg 83%
    11:00 -1°C° 0 mm 3 mps 735 mmHg 82%
    12:00 -1°C° 0 mm 3 mps 734 mmHg 81%
    13:00 0°C° 0 mm 3 mps 734 mmHg 80%
    14:00 -1°C° 0 mm 3 mps 734 mmHg 83%
    15:00 -1°C° 0 mm 3 mps 734 mmHg 85%
    16:00 -2°C° 0 mm 3 mps 733 mmHg 88%
    17:00 -2°C° 0 mm 3 mps 734 mmHg 88%
    18:00 -4°C° 0 mm 3 mps 734 mmHg 89%
    19:00 -4°C° 0 mm 3 mps 734 mmHg 89%
    20:00 -3°C° 0 mm 2 mps 734 mmHg 89%
    21:00 -3°C° 0 mm 2 mps 734 mmHg 89%
    22:00 -3°C° 0 mm 2 mps 734 mmHg 89%
    23:00 -3°C° 0 mm 2 mps 734 mmHg 89%

    Day after tomorrow, 14 December, Friday

    Time Temperature Precipitation Wind Pressure Humidity
    00:00 -3°C° 0 mm 2 mps 734 mmHg 89%
    01:00 -4°C° 0 mm 2 mps 734 mmHg 89%
    02:00 -4°C° 0 mm 2 mps 734 mmHg 89%
    03:00 -4°C° 0 mm 2 mps 734 mmHg 89%
    04:00 -4°C° 0 mm 2 mps 734 mmHg 89%
    05:00 -4°C° 0 mm 2 mps 734 mmHg 89%
    06:00 -4°C° 0 mm 2 mps 734 mmHg 89%
    07:00 -4°C° 0 mm 2 mps 734 mmHg 89%
    08:00 -3°C° 0 mm 2 mps 735 mmHg 87%
    09:00 -2°C° 0 mm 2 mps 735 mmHg 84%
    10:00 -1°C° 0 mm 2 mps 735 mmHg 82%
    11:00 -1°C° 0 mm 2 mps 735 mmHg 81%
    12:00 +1°C° 0 mm 2 mps 735 mmHg 80%
    13:00 +2°C° 0 mm 2 mps 735 mmHg 79%
    14:00 +1°C° 0 mm 2 mps 735 mmHg 82%
    15:00 -1°C° 0 mm 2 mps 735 mmHg 85%
    16:00 -1°C° 0 mm 2 mps 735 mmHg 89%
    17:00 -2°C° 0 mm 2 mps 735 mmHg 89%
    18:00 -2°C° 0 mm 2 mps 736 mmHg 89%
    19:00 -3°C° 0 mm 2 mps 736 mmHg 90%
    20:00 -3°C° 0 mm 2 mps 736 mmHg 90%
    21:00 -4°C° 0 mm 2 mps 737 mmHg 89%
    22:00 -4°C° 0 mm 2 mps 737 mmHg 89%
    23:00 -2°C° 0 mm 1 mps 737 mmHg 89%

    15 December, Saturday

    Time Temperature Precipitation Wind Pressure Humidity
    00:00 -2°C° 0 mm 1 mps 737 mmHg 89%
    01:00 -2°C° 0 mm 1 mps 737 mmHg 89%
    02:00 -3°C° 0 mm 1 mps 737 mmHg 89%
    03:00 -3°C° 0 mm 1 mps 738 mmHg 89%
    04:00 -3°C° 0 mm 1 mps 738 mmHg 89%
    05:00 -4°C° 0 mm 0 mps 738 mmHg 89%
    06:00 -4°C° 0 mm 0 mps 738 mmHg 89%
    07:00 -4°C° 0 mm 0 mps 738 mmHg 89%
    08:00 -3°C° 0 mm 0 mps 739 mmHg 87%
    09:00 -3°C° 0 mm 0 mps 739 mmHg 84%
    10:00 -2°C° 0 mm 0 mps 739 mmHg 82%
    11:00 -1°C° 0 mm 0 mps 739 mmHg 80%
    12:00 0°C° 0 mm 1 mps 739 mmHg 78%
    13:00 +1°C° 0 mm 1 mps 738 mmHg 76%
    14:00 0°C° 0 mm 1 mps 738 mmHg 79%
    15:00 -1°C° 0 mm 0 mps 738 mmHg 83%
    16:00 -2°C° 0 mm 0 mps 738 mmHg 86%
    17:00 -3°C° 0 mm 0 mps 739 mmHg 87%
    18:00 -2°C° 0 mm 1 mps 739 mmHg 88%
    19:00 -3°C° 0 mm 1 mps 740 mmHg 89%
    20:00 -3°C° 0 mm 1 mps 740 mmHg 89%
    21:00 -3°C° 0 mm 1 mps 740 mmHg 88%
    22:00 -3°C° 0 mm 1 mps 740 mmHg 88%
    23:00 -4°C° 0 mm 1 mps 740 mmHg 87%

    16 December, Sunday

    Time Temperature Precipitation Wind Pressure Humidity
    00:00 -4°C° 0 mm 1 mps 739 mmHg 86%
    01:00 -4°C° 0 mm 1 mps 739 mmHg 85%
    02:00 -4°C° 0 mm 1 mps 739 mmHg 84%
    03:00 -4°C° 0 mm 1 mps 739 mmHg 82%
    04:00 -4°C° 0 mm 1 mps 738 mmHg 81%
    05:00 -4°C° 0 mm 1 mps 738 mmHg 79%
    06:00 -4°C° 0 mm 1 mps 738 mmHg 78%
    07:00 -4°C° 0 mm 1 mps 738 mmHg 76%
    08:00 -3°C° 0 mm 1 mps 738 mmHg 73%
    09:00 -1°C° 0 mm 1 mps 738 mmHg 70%
    10:00 0°C° 0 mm 1 mps 737 mmHg 67%
    11:00 +1°C° 0 mm 1 mps 737 mmHg 67%
    12:00 +2°C° 0 mm 1 mps 736 mmHg 66%
    13:00 +3°C° 0 mm 1 mps 736 mmHg 65%
    14:00 +3°C° 0 mm 1 mps 735 mmHg 67%
    15:00 +3°C° 0 mm 1 mps 735 mmHg 70%
    16:00 +3°C° 0 mm 1 mps 735 mmHg 72%
    17:00 +3°C° 0 mm 1 mps 735 mmHg 72%
    18:00 +3°C° 0 mm 1 mps 735 mmHg 71%
    19:00 +3°C° 0 mm 1 mps 735 mmHg 71%
    20:00 +3°C° 0 mm 1 mps 735 mmHg 73%
    21:00 +3°C° 0 mm 1 mps 735 mmHg 74%
    22:00 +4°C° 0 mm 1 mps 735 mmHg 75%
    23:00 +4°C° 0.3 mm 1 mps 735 mmHg 77%

    17 December, Monday

    Time Temperature Precipitation Wind Pressure Humidity
    00:00 +3°C° 0.3 mm 0 mps 735 mmHg 80%
    01:00 +3°C° 0.3 mm 0 mps 735 mmHg 82%
    02:00 +3°C° 1 mm 0 mps 735 mmHg 84%
    03:00 +3°C° 1 mm 0 mps 735 mmHg 87%
    04:00 +3°C° 1 mm 0 mps 735 mmHg 89%
    05:00 +3°C° 0.6 mm 0 mps 736 mmHg 90%
    06:00 +4°C° 0.6 mm 1 mps 736 mmHg 92%
    07:00 +4°C° 0.6 mm 1 mps 736 mmHg 93%
    08:00 +3°C° 0.1 mm 0 mps 736 mmHg 93%
    09:00 +3°C° 0.1 mm 0 mps 736 mmHg 94%
    10:00 +4°C° 0.1 mm 0 mps 736 mmHg 94%
    11:00 +4°C° 0 mm 0 mps 736 mmHg 95%
    12:00 +5°C° 0 mm 0 mps 736 mmHg 95%
    13:00 +5°C° 0 mm 0 mps 736 mmHg 96%
    14:00 +5°C° 0 mm 0 mps 736 mmHg 96%
    15:00 +4°C° 0 mm 0 mps 736 mmHg 96%
    16:00 +4°C° 0 mm 0 mps 736 mmHg 96%
    17:00 +3°C° 0.2 mm 0 mps 736 mmHg 95%
    18:00 +3°C° 0.2 mm 0 mps 737 mmHg 95%
    19:00 +3°C° 0.2 mm 0 mps 737 mmHg 95%
    20:00 +3°C° 0.5 mm 0 mps 737 mmHg 95%
    21:00 +3°C° 0.5 mm 0 mps 738 mmHg 95%
    22:00 +3°C° 0.5 mm 0 mps 738 mmHg 95%
    23:00 +4°C° 0.8 mm 1 mps 738 mmHg 96%
    Show more